EW4685 Weather Reports


Display with metric or nautical units.
time (UTC)temp
F
wind
direction
speed
MPH
gust
MPH
rain 1hr
in
rain 24hr
in
rain mn
in
humidity
%
barometer
mb
20260505195601 38 39 0.0 0.0 0.00 0.00 0.00 96 1020.7
20260505195101 38 39 0.0 0.0 0.00 0.00 0.00 96 1020.6
20260505194600 38 39 0.0 0.0 0.00 0.00 0.00 96 1020.6
20260505194059 38 39 0.0 0.0 0.00 0.00 0.00 96 1020.6
20260505193556 38 39 0.0 0.0 0.00 0.00 0.00 96 1020.6
20260505193054 38 39 0.0 0.0 0.00 0.00 0.00 96 1020.6
20260505192554 38 39 0.0 0.0 0.00 0.00 0.00 96 1020.6
20260505192054 38 39 0.0 0.0 0.00 0.00 0.00 96 1020.5
20260505191810 38 39 0.0 0.0 0.00 0.00 0.00 96 1020.6
20260505191313 38 39 0.0 0.0 0.00 0.00 0.00 96 1020.6
20260505190551 38 39 0.0 0.0 0.00 0.00 0.00 96 1020.5
20260505190049 38 39 0.0 0.0 0.00 0.00 0.00 96 1020.7
20260505185547 38 39 0.0 0.0 0.00 0.00 0.00 96 1020.6
20260505185045 38 39 0.0 0.0 0.00 0.00 0.00 96 1020.6
20260505184544 38 39 0.0 0.0 0.00 0.00 0.00 96 1020.6
20260505184043 39 39 0.0 0.0 0.00 0.00 0.00 96 1020.6
20260505183539 39 39 0.0 0.0 0.00 0.00 0.00 96 1020.6
20260505183034 38 39 0.0 0.0 0.00 0.00 0.00 96 1020.5
20260505182527 38 39 0.0 0.0 0.00 0.00 0.00 96 1020.6
20260505182021 38 39 0.0 0.0 0.00 0.00 0.00 95 1020.6
20260505181516 39 39 0.0 0.0 0.00 0.00 0.00 96 1020.5
20260505181009 39 39 0.0 0.0 0.00 0.00 0.00 96 1020.5
20260505180505 39 39 0.0 0.0 0.00 0.00 0.00 95 1020.5
20260505175958 39 39 0.0 0.0 0.00 0.00 0.00 95 1020.5
20260505175451 39 39 0.0 0.0 0.00 0.00 0.00 95 1020.5
20260505174946 39 39 0.0 0.0 0.00 0.00 0.00 95 1020.5
20260505174439 39 39 0.0 0.0 0.00 0.00 0.00 95 1020.6
20260505173935 40 39 0.0 0.0 0.00 0.00 0.00 95 1020.6
20260505173428 40 39 0.0 0.0 0.00 0.00 0.00 95 1020.6
20260505172923 40 39 0.0 0.0 0.00 0.00 0.00 95 1020.6
20260505172416 40 39 0.0 0.0 0.00 0.00 0.00 95 1020.6
20260505171908 40 39 0.0 0.0 0.00 0.00 0.00 95 1020.6
20260505171623 40 39 0.0 0.0 0.00 0.00 0.00 95 1020.7
20260505170859 40 39 0.0 0.0 0.00 0.00 0.00 95 1020.7
20260505170353 40 39 0.0 0.0 0.00 0.00 0.00 95 1020.8
20260505165846 40 39 0.0 0.0 0.00 0.00 0.00 95 1020.8
20260505165339 40 39 0.0 0.0 0.00 0.00 0.00 95 1020.8
20260505164833 40 39 0.0 0.0 0.00 0.00 0.00 95 1020.7
20260505164330 40 39 0.0 0.0 0.00 0.00 0.00 95 1020.8
20260505163820 41 39 0.0 0.0 0.00 0.00 0.00 95 1020.8
20260505163316 41 39 0.0 0.0 0.00 0.00 0.00 95 1020.8
20260505162809 41 39 0.0 0.0 0.00 0.00 0.00 95 1020.8
20260505162307 41 39 0.0 0.0 0.00 0.00 0.00 95 1020.9
20260505161757 41 39 0.0 0.0 0.00 0.00 0.00 95 1021.0
20260505161251 41 39 0.0 0.0 0.00 0.00 0.00 95 1021.0
20260505160746 41 39 0.0 0.0 0.00 0.00 0.00 95 1021.0
20260505160245 41 39 0.0 0.0 0.00 0.00 0.00 95 1021.0
20260505152703 42 39 0.0 0.0 0.00 0.00 0.00 94 1021.3
20260505152202 42 39 0.0 0.0 0.00 0.00 0.00 94 1021.3
20260505151701 42 39 0.0 0.0 0.00 0.00 0.00 94 1021.3
20260505151159 42 39 0.0 0.0 0.00 0.00 0.00 95 1021.3
20260505150700 42 39 0.0 0.0 0.00 0.00 0.00 95 1021.4
20260505150159 42 39 0.0 0.0 0.00 0.00 0.00 94 1021.4
20260505140647 43 39 0.0 0.0 0.00 0.00 0.00 94 1021.5
20260505140139 43 39 0.0 0.0 0.00 0.00 0.00 94 1021.5
20260505124540 45 39 0.0 0.0 0.00 0.00 0.00 91 1021.7
20260505124040 46 39 0.0 0.0 0.00 0.00 0.00 91 1021.7
20260505123539 46 39 0.0 0.0 0.00 0.00 0.00 90 1021.7
20260505123037 46 39 0.0 0.0 0.00 0.00 0.00 90 1021.8
20260505122537 46 39 0.0 0.0 0.00 0.00 0.00 90 1021.8
20260505122034 46 39 0.0 0.0 0.00 0.00 0.00 89 1021.8
20260505121532 47 39 0.0 0.0 0.00 0.00 0.00 89 1021.8
20260505121029 47 39 0.0 0.0 0.00 0.00 0.00 89 1021.8
20260505120528 47 39 0.0 0.0 0.00 0.00 0.00 88 1021.8
20260505120032 47 39 0.0 0.0 0.00 0.00 0.00 88 1022.0
20260505115749 48 39 0.0 0.0 0.00 0.00 0.00 87 1021.9
20260505115027 48 39 0.0 0.0 0.00 0.00 0.00 87 1021.8
20260505114526 48 39 0.0 1.0 0.00 0.00 0.00 87 1021.8
20260505114026 48 39 0.0 3.0 0.00 0.00 0.00 86 1021.8
20260505113525 48 156 0.0 3.0 0.00 0.00 0.00 87 1021.7
20260505113019 48 24 0.0 2.0 0.00 0.00 0.00 87 1021.5
20260505112513 48 85 0.0 2.0 0.00 0.00 0.00 88 1021.4
20260505112008 48 83 0.0 3.0 0.00 0.00 0.00 89 1021.4
20260505111501 47 47 0.0 3.0 0.00 0.00 0.00 90 1021.3
20260505111001 47 40 0.0 1.0 0.00 0.00 0.00 90 1021.4
20260505110500 47 57 0.0 1.0 0.00 0.00 0.00 90 1021.3
20260505110222 46 42 0.0 0.0 0.00 0.00 0.00 90 1021.3
20260505101950 49 42 0.0 0.0 0.00 0.00 0.00 86 1021.1
20260505101448 49 42 0.0 0.0 0.00 0.00 0.00 86 1021.0
20260505100949 49 42 0.0 2.0 0.00 0.00 0.00 86 1020.9
20260505100448 49 35 0.0 4.0 0.00 0.00 0.00 86 1020.8
20260505095947 49 77 0.0 4.0 0.00 0.00 0.00 87 1020.8
20260505095446 49 1 0.0 0.0 0.00 0.00 0.00 86 1020.7
20260505094946 49 0 0.0 0.0 0.00 0.00 0.00 86 1020.7
20260505094446 49 49 0.0 0.0 0.00 0.00 0.00 85 1020.7
20260505093946 49 49 0.0 0.0 0.00 0.00 0.00 84 1020.6
20260505093444 50 49 0.0 0.0 0.00 0.00 0.00 82 1020.5
20260505093201 51 49 0.0 0.0 0.00 0.00 0.00 81 1020.5
20260505092441 51 49 0.0 0.0 0.00 0.00 0.00 81 1020.4
20260505091940 51 49 0.0 0.0 0.00 0.00 0.00 81 1020.4
20260505091438 52 49 0.0 2.0 0.00 0.00 0.00 80 1020.2
20260505090939 52 49 0.0 2.0 0.00 0.00 0.00 80 1020.2
20260505090435 52 40 0.0 4.0 0.00 0.00 0.00 79 1020.2
20260505085936 52 16 0.0 4.0 0.00 0.00 0.00 79 1020.1
20260505085434 53 57 0.0 4.0 0.00 0.00 0.00 78 1019.9
20260505084933 53 38 0.0 4.0 0.00 0.00 0.00 78 1019.9
20260505084920 53 17 1.0 4.0 0.00 0.00 0.00 78 1019.8
20260505083932 53 8 1.0 4.0 0.00 0.00 0.00 77 1019.6
20260505083650 53 45 1.0 4.0 0.00 0.00 0.00 77 1019.6
20260505083413 53 4 2.0 4.0 0.00 0.00 0.00 76 1019.5
20260505082435 53 22 1.0 4.0 0.00 0.00 0.00 76 1019.4
20260505081933 54 322 0.0 4.0 0.00 0.00 0.00 76 1019.3
20260505081432 54 348 0.0 4.0 0.00 0.00 0.00 75 1019.3
20260505081154 54 64 1.0 4.0 0.00 0.00 0.00 75 1019.3
20260505080656 54 25 1.0 5.0 0.00 0.00 0.00 74 1019.2
20260505080155 55 32 1.0 6.0 0.00 0.00 0.00 74 1019.2
20260505075433 55 52 0.0 6.0 0.00 0.00 0.00 73 1019.1
20260505074939 55 61 1.0 5.0 0.00 0.00 0.00 72 1019.1
20260505074434 56 334 1.0 4.0 0.00 0.00 0.00 72 1019.0
20260505073933 56 48 1.0 4.0 0.00 0.00 0.00 72 1019.0
20260505073433 56 1 1.0 8.0 0.00 0.00 0.00 71 1018.9
20260505073426 56 36 1.0 8.0 0.00 0.00 0.00 70 1018.8
20260505072433 57 45 1.0 5.0 0.00 0.00 0.00 69 1018.7
20260505071926 57 11 1.0 5.0 0.00 0.00 0.00 68 1018.6
20260505071425 58 18 1.0 4.0 0.00 0.00 0.00 67 1018.5
20260505070910 58 7 1.0 6.0 0.00 0.00 0.00 67 1018.4
20260505070629 58 337 2.0 6.0 0.00 0.00 0.00 66 1018.2
20260505065903 58 20 1.0 5.0 0.00 0.00 0.00 66 1018.2
20260505065403 59 55 2.0 7.0 0.00 0.00 0.00 66 1018.2
20260505064902 59 298 3.0 7.0 0.00 0.00 0.00 65 1018.1
20260505064402 60 44 2.0 6.0 0.00 0.00 0.00 64 1018.1
20260505063901 60 28 1.0 6.0 0.00 0.00 0.00 64 1017.9
20260505063356 60 20 2.0 8.0 0.00 0.00 0.00 64 1017.9
20260505062856 60 71 3.0 8.0 0.00 0.00 0.00 63 1017.9
20260505062400 60 302 2.0 8.0 0.00 0.00 0.00 63 1017.8
20260505061857 61 61 2.0 8.0 0.00 0.00 0.00 63 1017.8
20260505061619 61 287 3.0 9.0 0.00 0.00 0.00 63 1017.7
20260505060854 61 43 4.0 9.0 0.00 0.00 0.00 62 1017.7
20260505060353 61 51 3.0 8.0 0.00 0.00 0.00 62 1017.6
20260505055853 62 42 4.0 13.0 0.00 0.00 0.00 60 1017.6
20260505055618 62 10 4.0 13.0 0.00 0.00 0.00 60 1017.4
20260505054852 62 67 4.0 11.0 0.00 0.00 0.00 59 1017.4
20260505054352 62 59 4.0 10.0 0.00 0.00 0.00 59 1017.4
20260505053847 62 38 4.0 10.0 0.00 0.00 0.00 58 1017.3
20260505053340 62 336 3.0 8.0 0.00 0.00 0.00 58 1017.3
20260505053056 63 67 2.0 8.0 0.00 0.00 0.00 58 1017.3
20260505052329 63 284 2.0 6.0 0.00 0.00 0.00 57 1017.2
20260505051822 63 50 2.0 6.0 0.00 0.00 0.00 57 1017.2
20260505051316 63 9 2.0 7.0 0.00 0.00 0.00 58 1017.2
20260505050809 63 31 3.0 8.0 0.00 0.00 0.00 57 1017.1
20260505050304 63 322 3.0 8.0 0.00 0.00 0.00 57 1017.1
20260505041709 62 299 3.0 12.0 0.00 0.00 0.00 60 1016.9
20260505041202 62 325 4.0 12.0 0.00 0.01 0.00 60 1016.9
20260505040656 61 289 4.0 10.0 0.00 0.01 0.00 60 1016.9
20260505040151 62 331 3.0 11.0 0.00 0.01 0.00 60 1017.0
20260505035913 62 306 4.0 13.0 0.00 0.01 0.00 61 1017.0
20260505035139 61 44 4.0 13.0 0.00 0.01 0.00 61 1017.0
20260505034632 61 329 4.0 11.0 0.00 0.02 0.00 61 1017.1
20260505034127 62 334 3.0 11.0 0.00 0.02 0.00 60 1017.0
20260505033620 62 270 3.0 8.0 0.00 0.02 0.00 60 1017.0
20260505033121 61 310 4.0 9.0 0.00 0.05 0.00 61 1017.0
20260505032613 61 12 3.0 9.0 0.00 0.05 0.00 59 1017.1
20260505032547 61 33 3.0 9.0 0.00 0.05 0.00 60 1017.1
20260505031556 61 284 3.0 10.0 0.00 0.05 0.00 60 1017.2
20260505031050 62 8 3.0 10.0 0.00 0.05 0.00 58 1017.2
20260505031036 62 14 2.0 9.0 0.00 0.05 0.00 59 1017.3
20260505030043 61 319 2.0 9.0 0.00 0.05 0.00 59 1017.3
20260505025533 61 295 2.0 11.0 0.00 0.05 0.00 58 1017.4
20260505025026 62 36 2.0 10.0 0.00 0.05 0.00 58 1017.4
20260505024520 62 43 2.0 10.0 0.00 0.05 0.00 58 1017.4
20260505024016 62 325 2.0 9.0 0.00 0.05 0.00 56 1017.5
20260505023513 62 17 2.0 7.0 0.00 0.05 0.00 57 1017.5
20260505023227 62 303 2.0 7.0 0.00 0.05 0.00 58 1017.6
20260505022719 62 36 2.0 8.0 0.00 0.05 0.00 57 1017.6
20260505021950 62 306 2.0 8.0 0.00 0.05 0.00 56 1017.7
20260505021933 62 294 1.0 6.0 0.00 0.05 0.00 55 1017.9
20260505020938 61 44 1.0 6.0 0.00 0.05 0.00 58 1018.0
20260505020438 61 298 1.0 6.0 0.00 0.05 0.00 57 1017.9
20260505015928 61 272 1.0 6.0 0.00 0.05 0.00 57 1017.9
20260505015420 61 48 1.0 6.0 0.00 0.05 0.00 58 1018.1
20260505014916 61 355 1.0 6.0 0.00 0.05 0.00 58 1018.2
20260505014409 60 254 1.0 5.0 0.00 0.05 0.00 61 1018.2
20260505013902 60 16 2.0 7.0 0.00 0.05 0.00 59 1018.4
20260505013356 60 48 3.0 7.0 0.00 0.05 0.00 59 1018.5
20260505013116 60 52 3.0 8.0 0.00 0.05 0.00 61 1018.5
20260505012350 60 19 2.0 11.0 0.00 0.05 0.00 61 1018.5
20260505011850 60 292 2.0 11.0 0.00 0.05 0.00 62 1018.4
20260505011611 60 235 2.0 7.0 0.00 0.05 0.00 63 1018.5
20260505010852 59 104 3.0 7.0 0.00 0.05 0.00 63 1018.6
20260505010348 59 2 3.0 7.0 0.00 0.05 0.00 60 1018.6
20260505010109 59 304 2.0 7.0 0.00 0.05 0.00 59 1018.6
20260505005618 59 353 1.0 6.0 0.00 0.05 0.00 59 1018.5
20260505004848 59 56 2.0 8.0 0.00 0.05 0.00 59 1018.6
20260505004349 59 63 4.0 11.0 0.00 0.05 0.00 59 1018.6
20260505003846 59 344 3.0 11.0 0.00 0.05 0.00 58 1018.6
20260505003347 59 27 2.0 9.0 0.00 0.06 0.00 60 1018.5
20260505002848 59 307 2.0 9.0 0.00 0.06 0.00 59 1018.4
20260505002612 59 295 2.0 7.0 0.00 0.06 0.00 59 1018.4
20260505001846 59 279 1.0 7.0 0.00 0.09 0.00 58 1018.2
20260505001348 58 22 1.0 5.0 0.00 0.10 0.00 62 1018.2
20260505001100 58 270 1.0 5.0 0.00 0.10 0.00 61 1018.1
20260505000343 58 26 1.0 5.0 0.00 0.10 0.00 60 1018.1
20260504235842 58 331 1.0 5.0 0.00 0.10 0.00 60 1018.0
20260504235342 58 48 1.0 5.0 0.00 0.11 0.00 61 1018.0
20260504235110 58 54 1.0 5.0 0.00 0.11 0.00 62 1018.0
20260504234342 58 26 1.0 7.0 0.00 0.13 0.00 63 1018.2
20260504233842 57 274 1.0 7.0 0.00 0.16 0.00 62 1018.1
20260504233340 57 356 1.0 4.0 0.00 0.17 0.00 63 1018.1
20260504232842 57 286 1.0 6.0 0.00 0.17 0.00 63 1017.8
20260504232602 57 29 2.0 7.0 0.00 0.17 0.00 66 1017.8
20260504231840 56 33 2.0 7.0 0.00 0.18 0.00 66 1017.6
20260504231340 56 243 2.0 7.0 0.00 0.19 0.00 67 1017.6
20260504230840 56 276 1.0 5.0 0.00 0.19 0.00 66 1017.7
20260504230340 57 332 0.0 4.0 0.00 0.19 0.00 66 1017.7
20260504230058 57 313 0.0 3.0 0.00 0.19 0.00 67 1017.8
20260504225342 56 351 0.0 3.0 0.00 0.20 0.00 67 1017.8
20260504224840 56 299 0.0 2.0 0.00 0.21 0.00 70 1017.9
20260504224340 55 57 0.0 4.0 0.00 0.24 0.00 70 1017.7
20260504223840 55 291 1.0 6.0 0.00 0.26 0.00 72 1017.7
20260504223340 54 280 1.0 6.0 0.00 0.28 0.00 71 1017.7
20260504222841 54 287 1.0 5.0 0.00 0.30 0.00 72 1017.6
20260504222340 53 271 1.0 7.0 0.00 0.36 0.00 74 1017.5
20260504221840 53 339 1.0 7.0 0.00 0.39 0.00 75 1017.3
20260504221341 52 305 1.0 4.0 0.00 0.40 0.00 79 1017.3
20260504220841 51 311 1.0 8.0 0.00 0.45 0.00 80 1017.2
20260504220339 51 334 2.0 8.0 0.00 0.46 0.00 81 1017.3
20260504215840 50 298 1.0 5.0 0.00 0.46 0.00 82 1017.3
20260504215610 50 0 1.0 5.0 0.00 0.46 0.00 83 1017.2
20260504214840 49 331 1.0 3.0 0.00 0.46 0.00 83 1017.2
20260504214340 49 284 1.0 5.0 0.00 0.46 0.00 84 1017.3
20260504213839 49 41 1.0 5.0 0.00 0.46 0.00 84 1017.3
20260504213821 48 306 0.0 3.0 0.00 0.46 0.00 85 1017.2
20260504213059 47 344 0.0 2.0 0.00 0.46 0.00 86 1017.2
20260504212555 47 55 0.0 0.0 0.00 0.46 0.00 87 1017.1
20260504211837 47 338 0.0 0.0 0.00 0.46 0.00 87 1017.1
20260504211602 47 338 0.0 0.0 0.00 0.46 0.00 87 1017.1
20260504210835 47 338 0.0 0.0 0.00 0.46 0.00 87 1017.1
20260504210559 47 338 0.0 0.0 0.00 0.46 0.00 86 1017.0
20260504205833 47 338 0.0 0.0 0.00 0.46 0.00 85 1016.9
20260504205333 47 338 0.0 0.0 0.00 0.46 0.00 84 1016.8
20260504205048 48 338 0.0 0.0 0.00 0.46 0.00 83 1016.7
20260504204327 48 338 0.0 0.0 0.00 0.46 0.00 82 1016.5
20260504203827 49 338 0.0 1.0 0.00 0.47 0.00 81 1016.5
20260504203326 49 338 0.0 1.0 0.00 0.47 0.00 80 1016.4
20260504202825 49 100 0.0 0.0 0.00 0.47 0.00 80 1016.4
20260504202553 49 100 0.0 4.0 0.00 0.47 0.00 80 1016.3
20260504201824 49 297 0.0 4.0 0.00 0.48 0.00 80 1016.2
20260504201322 49 282 0.0 2.0 0.00 0.48 0.00 79 1016.2
20260504200822 49 299 1.0 6.0 0.00 0.48 0.00 79 1016.1
20260504200318 49 286 1.0 6.0 0.00 0.48 0.00 80 1016.0
20260504195816 49 296 0.0 3.0 0.00 0.48 0.00 81 1015.9